| time (UTC) | temp F | wind direction | speed MPH | gust MPH | rain 1hr in | rain 24hr in | rain mn in | humidity % | barometer mb |
| 20260831053603 | 51 | 13 | 0.0 | 1.0 | 0.00 | 0.21 | 0.21 | 95 | 1017.5 |
| 20260831052703 | 51 | 187 | 0.0 | 1.0 | 0.00 | 0.21 | 0.21 | 95 | 1017.5 |
| 20260831051803 | 51 | 145 | 0.0 | 3.0 | 0.00 | 0.21 | 0.21 | 95 | 1017.5 |
| 20260831050903 | 51 | 152 | 1.0 | 4.0 | 0.00 | 0.21 | 0.21 | 96 | 1017.6 |
| 20260831050218 | 51 | 114 | 0.0 | 1.0 | 0.00 | 0.21 | 0.21 | 95 | 1017.6 |
| 20260831045405 | 51 | 93 | 0.0 | 2.0 | 0.00 | 0.21 | 0.21 | 95 | 1017.6 |
| 20260831044503 | 51 | 27 | 0.0 | 2.0 | 0.00 | 0.21 | 0.21 | 95 | 1017.6 |
| 20260831043603 | 52 | 148 | 0.0 | 2.0 | 0.00 | 0.21 | 0.21 | 95 | 1017.4 |
| 20260831042703 | 52 | 0 | 0.0 | 0.0 | 0.00 | 0.21 | 0.21 | 95 | 1017.5 |
| 20260831041803 | 52 | 17 | 0.0 | 1.0 | 0.00 | 0.20 | 0.20 | 95 | 1017.7 |
| 20260831040903 | 52 | 0 | 0.0 | 0.0 | 0.00 | 0.20 | 0.20 | 95 | 1017.4 |
| 20260831040003 | 52 | 25 | 0.0 | 1.0 | 0.00 | 0.20 | 0.20 | 95 | 1017.7 |
| 20260831035617 | 52 | 20 | 0.0 | 1.0 | 0.00 | 0.20 | 0.20 | 95 | 1017.6 |
| 20260831034503 | 52 | 0 | 0.0 | 0.0 | 0.00 | 0.20 | 0.20 | 95 | 1017.1 |
| 20260831033603 | 52 | 0 | 0.0 | 0.0 | 0.00 | 0.20 | 0.20 | 94 | 1016.9 |
| 20260831032705 | 52 | 0 | 0.0 | 0.0 | 0.00 | 0.20 | 0.20 | 94 | 1017.0 |
| 20260831031803 | 52 | 0 | 0.0 | 0.0 | 0.00 | 0.20 | 0.20 | 94 | 1016.9 |
| 20260831030903 | 53 | 0 | 0.0 | 0.0 | 0.00 | 0.20 | 0.20 | 94 | 1017.1 |
| 20260831030003 | 53 | 0 | 0.0 | 0.0 | 0.00 | 0.20 | 0.20 | 94 | 1016.7 |
| 20260831025403 | 53 | 0 | 0.0 | 0.0 | 0.00 | 0.20 | 0.20 | 94 | 1016.8 |
| 20260831024503 | 53 | 15 | 0.0 | 1.0 | 0.00 | 0.20 | 0.20 | 94 | 1016.7 |
| 20260831023603 | 53 | 15 | 0.0 | 1.0 | 0.00 | 0.20 | 0.20 | 93 | 1016.8 |
| 20260831022703 | 53 | 0 | 0.0 | 0.0 | 0.00 | 0.20 | 0.20 | 93 | 1016.7 |
| 20260831021803 | 53 | 0 | 0.0 | 0.0 | 0.00 | 0.20 | 0.20 | 93 | 1016.7 |
| 20260831020903 | 53 | 154 | 0.0 | 2.0 | 0.00 | 0.20 | 0.20 | 93 | 1016.8 |
| 20260831020217 | 53 | 168 | 0.0 | 2.0 | 0.00 | 0.20 | 0.20 | 93 | 1016.6 |
| 20260831015403 | 53 | 175 | 0.0 | 2.0 | 0.00 | 0.20 | 0.20 | 93 | 1016.7 |
| 20260831014503 | 53 | 0 | 0.0 | 0.0 | 0.00 | 0.20 | 0.20 | 93 | 1016.8 |
| 20260831013603 | 54 | 105 | 0.0 | 2.0 | 0.00 | 0.20 | 0.20 | 93 | 1016.8 |
| 20260831012703 | 54 | 168 | 0.0 | 2.0 | 0.00 | 0.20 | 0.20 | 93 | 1016.8 |
| 20260831012018 | 54 | 185 | 0.0 | 2.0 | 0.00 | 0.20 | 0.20 | 93 | 1017.0 |
| 20260831011117 | 54 | 177 | 0.0 | 2.0 | 0.00 | 0.20 | 0.20 | 94 | 1017.0 |
| 20260831010004 | 54 | 167 | 0.0 | 2.0 | 0.00 | 0.20 | 0.20 | 93 | 1017.0 |
| 20260831005403 | 54 | 174 | 0.0 | 2.0 | 0.00 | 0.20 | 0.20 | 93 | 1017.0 |
| 20260831004503 | 54 | 179 | 1.0 | 5.0 | 0.00 | 0.20 | 0.20 | 94 | 1016.8 |
| 20260831003603 | 54 | 184 | 1.0 | 2.0 | 0.00 | 0.20 | 0.20 | 93 | 1016.9 |
| 20260831002703 | 54 | 171 | 1.0 | 3.0 | 0.00 | 0.20 | 0.20 | 93 | 1016.4 |
| 20260831001803 | 54 | 204 | 0.0 | 2.0 | 0.00 | 0.20 | 0.20 | 93 | 1016.7 |
| 20260831000903 | 54 | 207 | 0.0 | 2.0 | 0.00 | 0.20 | 0.20 | 93 | 1016.8 |
| 20260831000218 | 54 | 196 | 0.0 | 2.0 | 0.00 | 0.20 | 0.20 | 94 | 1016.8 |
| 20260830235403 | 54 | 185 | 0.0 | 2.0 | 0.00 | 0.20 | 0.20 | 94 | 1016.9 |
| 20260830234505 | 54 | 276 | 0.0 | 1.0 | 0.00 | 0.20 | 0.20 | 94 | 1016.7 |
| 20260830233603 | 54 | 186 | 0.0 | 2.0 | 0.00 | 0.20 | 0.20 | 94 | 1016.6 |
| 20260830232703 | 54 | 120 | 0.0 | 1.0 | 0.00 | 0.20 | 0.20 | 94 | 1016.6 |
| 20260830231803 | 53 | 160 | 0.0 | 2.0 | 0.00 | 0.20 | 0.20 | 94 | 1016.7 |
| 20260830230903 | 53 | 114 | 0.0 | 1.0 | 0.00 | 0.20 | 0.20 | 94 | 1016.6 |
| 20260830230003 | 53 | 270 | 0.0 | 1.0 | 0.00 | 0.20 | 0.20 | 94 | 1016.7 |
| 20260830225403 | 53 | 174 | 0.0 | 1.0 | 0.00 | 0.20 | 0.20 | 94 | 1016.7 |
| 20260830224503 | 54 | 195 | 0.0 | 1.0 | 0.00 | 0.20 | 0.20 | 95 | 1016.5 |
| 20260830223818 | 54 | 195 | 0.0 | 1.0 | 0.00 | 0.20 | 0.20 | 94 | 1016.6 |
| 20260830222703 | 54 | 181 | 0.0 | 3.0 | 0.00 | 0.20 | 0.20 | 95 | 1016.7 |
| 20260830221803 | 53 | 272 | 0.0 | 2.0 | 0.00 | 0.20 | 0.20 | 95 | 1016.7 |
| 20260830220903 | 53 | 266 | 0.0 | 1.0 | 0.00 | 0.20 | 0.20 | 94 | 1016.5 |
| 20260830220220 | 53 | 260 | 0.0 | 2.0 | 0.00 | 0.20 | 0.20 | 94 | 1016.8 |
| 20260830215403 | 54 | 247 | 0.0 | 3.0 | 0.00 | 0.20 | 0.20 | 94 | 1016.6 |
| 20260830214718 | 54 | 276 | 0.0 | 3.0 | 0.00 | 0.20 | 0.20 | 94 | 1016.2 |
| 20260830213606 | 54 | 218 | 1.0 | 4.0 | 0.00 | 0.20 | 0.20 | 95 | 1016.6 |
| 20260830212703 | 53 | 281 | 0.0 | 4.0 | 0.00 | 0.20 | 0.20 | 95 | 1016.1 |
| 20260830211803 | 53 | 275 | 0.0 | 2.0 | 0.00 | 0.20 | 0.20 | 95 | 1016.4 |
| 20260830211118 | 53 | 211 | 0.0 | 1.0 | 0.00 | 0.20 | 0.20 | 95 | 1016.6 |
| 20260830210003 | 53 | 199 | 0.0 | 2.0 | 0.01 | 0.20 | 0.20 | 95 | 1016.5 |
| 20260830205403 | 53 | 215 | 0.0 | 2.0 | 0.01 | 0.20 | 0.20 | 95 | 1016.2 |
| 20260830204503 | 53 | 208 | 0.0 | 2.0 | 0.01 | 0.20 | 0.20 | 95 | 1016.0 |
| 20260830203603 | 53 | 197 | 0.0 | 2.0 | 0.01 | 0.20 | 0.20 | 96 | 1016.1 |
| 20260830202703 | 53 | 225 | 0.0 | 2.0 | 0.01 | 0.20 | 0.20 | 95 | 1016.2 |
| 20260830201803 | 52 | 197 | 0.0 | 3.0 | 0.01 | 0.20 | 0.20 | 96 | 1016.2 |
| 20260830200903 | 52 | 208 | 0.0 | 3.0 | 0.02 | 0.20 | 0.20 | 96 | 1016.4 |
| 20260830200003 | 52 | 199 | 0.0 | 2.0 | 0.01 | 0.20 | 0.20 | 96 | 1016.2 |
| 20260830195403 | 51 | 186 | 0.0 | 2.0 | 0.01 | 0.20 | 0.20 | 96 | 1016.4 |
| 20260830194503 | 51 | 199 | 0.0 | 2.0 | 0.02 | 0.20 | 0.20 | 96 | 1016.4 |
| 20260830193603 | 51 | 193 | 0.0 | 3.0 | 0.02 | 0.19 | 0.19 | 96 | 1016.4 |
| 20260830192703 | 51 | 177 | 1.0 | 6.0 | 0.02 | 0.19 | 0.19 | 96 | 1016.1 |
| 20260830191806 | 50 | 193 | 1.0 | 4.0 | 0.03 | 0.19 | 0.19 | 96 | 1016.2 |
| 20260830190903 | 50 | 190 | 1.0 | 3.0 | 0.03 | 0.19 | 0.19 | 95 | 1016.0 |
| 20260830190004 | 50 | 203 | 1.0 | 3.0 | 0.04 | 0.19 | 0.19 | 96 | 1016.4 |
| 20260830185403 | 50 | 201 | 1.0 | 3.0 | 0.05 | 0.19 | 0.19 | 95 | 1016.0 |
| 20260830184503 | 49 | 194 | 1.0 | 5.0 | 0.05 | 0.18 | 0.18 | 95 | 1016.0 |
| 20260830183603 | 49 | 200 | 1.0 | 3.0 | 0.06 | 0.18 | 0.18 | 95 | 1015.9 |
| 20260830182703 | 49 | 235 | 1.0 | 3.0 | 0.06 | 0.17 | 0.17 | 95 | 1016.1 |
| 20260830181803 | 49 | 197 | 1.0 | 6.0 | 0.06 | 0.17 | 0.17 | 95 | 1016.1 |
| 20260830180903 | 49 | 175 | 1.0 | 3.0 | 0.06 | 0.16 | 0.16 | 95 | 1016.1 |
| 20260830180003 | 49 | 201 | 1.0 | 6.0 | 0.05 | 0.15 | 0.15 | 95 | 1016.0 |
| 20260830175618 | 49 | 202 | 1.0 | 6.0 | 0.05 | 0.14 | 0.14 | 95 | 1016.0 |
| 20260830174717 | 49 | 173 | 1.0 | 5.0 | 0.04 | 0.13 | 0.13 | 94 | 1015.9 |
| 20260830173603 | 49 | 180 | 1.0 | 4.0 | 0.04 | 0.12 | 0.12 | 94 | 1015.9 |
| 20260830172703 | 48 | 171 | 1.0 | 4.0 | 0.05 | 0.11 | 0.11 | 94 | 1016.0 |
| 20260830171803 | 48 | 174 | 0.0 | 2.0 | 0.05 | 0.11 | 0.11 | 94 | 1016.0 |
| 20260830170903 | 48 | 180 | 1.0 | 4.0 | 0.05 | 0.10 | 0.10 | 94 | 1015.9 |
| 20260830170218 | 48 | 175 | 1.0 | 3.0 | 0.04 | 0.09 | 0.09 | 94 | 1015.8 |
| 20260830165403 | 48 | 180 | 0.0 | 4.0 | 0.04 | 0.09 | 0.09 | 94 | 1015.8 |
| 20260830164503 | 48 | 172 | 0.0 | 4.0 | 0.04 | 0.09 | 0.09 | 93 | 1015.6 |
| 20260830163603 | 48 | 186 | 0.0 | 2.0 | 0.04 | 0.08 | 0.08 | 93 | 1015.6 |
| 20260830162703 | 48 | 170 | 1.0 | 3.0 | 0.03 | 0.07 | 0.07 | 93 | 1015.7 |
| 20260830161803 | 48 | 177 | 1.0 | 4.0 | 0.03 | 0.06 | 0.06 | 93 | 1015.5 |
| 20260830160903 | 48 | 164 | 1.0 | 5.0 | 0.02 | 0.06 | 0.06 | 93 | 1015.6 |
| 20260830160003 | 48 | 199 | 0.0 | 2.0 | 0.03 | 0.06 | 0.06 | 93 | 1015.7 |
| 20260830155617 | 48 | 168 | 0.0 | 3.0 | 0.03 | 0.05 | 0.05 | 93 | 1015.8 |
| 20260830154718 | 48 | 161 | 1.0 | 4.0 | 0.02 | 0.05 | 0.05 | 93 | 1015.7 |
| 20260830153603 | 48 | 167 | 1.0 | 3.0 | 0.02 | 0.04 | 0.04 | 93 | 1015.6 |
| 20260830152703 | 48 | 176 | 1.0 | 3.0 | 0.02 | 0.04 | 0.04 | 93 | 1015.6 |
| 20260830151803 | 48 | 186 | 0.0 | 3.0 | 0.02 | 0.04 | 0.04 | 93 | 1015.7 |
| 20260830150903 | 48 | 158 | 1.0 | 3.0 | 0.02 | 0.03 | 0.03 | 93 | 1015.5 |
| 20260830150003 | 48 | 124 | 1.0 | 2.0 | 0.01 | 0.03 | 0.03 | 93 | 1015.1 |
| 20260830145403 | 48 | 147 | 1.0 | 3.0 | 0.01 | 0.02 | 0.02 | 93 | 1015.2 |
| 20260830144503 | 48 | 134 | 1.0 | 4.0 | 0.01 | 0.02 | 0.02 | 93 | 1015.1 |
| 20260830143603 | 48 | 142 | 1.0 | 4.0 | 0.01 | 0.02 | 0.02 | 93 | 1015.1 |
| 20260830142703 | 48 | 156 | 0.0 | 2.0 | 0.01 | 0.02 | 0.02 | 93 | 1015.2 |
| 20260830141803 | 48 | 202 | 0.0 | 1.0 | 0.01 | 0.02 | 0.02 | 92 | 1015.1 |
| 20260830141117 | 47 | 202 | 0.0 | 1.0 | 0.01 | 0.02 | 0.02 | 92 | 1015.2 |
| 20260830140004 | 47 | 163 | 0.0 | 1.0 | 0.01 | 0.02 | 0.02 | 92 | 1015.2 |
| 20260830135618 | 47 | 144 | 0.0 | 1.0 | 0.01 | 0.02 | 0.02 | 92 | 1015.1 |
| 20260830134504 | 47 | 150 | 0.0 | 2.0 | 0.01 | 0.01 | 0.01 | 92 | 1015.0 |
| 20260830133819 | 47 | 155 | 0.0 | 3.0 | 0.01 | 0.01 | 0.01 | 92 | 1014.9 |
| 20260830132918 | 47 | 150 | 0.0 | 2.0 | 0.01 | 0.01 | 0.01 | 92 | 1015.0 |
| 20260830132017 | 47 | 0 | 0.0 | 0.0 | 0.00 | 0.01 | 0.01 | 92 | 1015.0 |
| 20260830130904 | 47 | 166 | 0.0 | 1.0 | 0.00 | 0.01 | 0.01 | 92 | 1014.7 |
| 20260830130003 | 47 | 5 | 0.0 | 2.0 | 0.00 | 0.01 | 0.01 | 92 | 1014.9 |
| 20260830125618 | 47 | 167 | 0.0 | 1.0 | 0.00 | 0.00 | 0.00 | 92 | 1014.9 |
| 20260830124504 | 47 | 139 | 1.0 | 3.0 | 0.00 | 0.00 | 0.00 | 92 | 1015.0 |
| 20260830123603 | 47 | 75 | 0.0 | 2.0 | 0.00 | 0.00 | 0.00 | 91 | 1015.1 |
| 20260830122703 | 47 | 126 | 0.0 | 2.0 | 0.00 | 0.00 | 0.00 | 91 | 1014.8 |
| 20260830121803 | 47 | 133 | 0.0 | 2.0 | 0.00 | 0.00 | 0.00 | 91 | 1014.8 |
| 20260830120903 | 47 | 0 | 0.0 | 0.0 | 0.00 | 0.00 | 0.00 | 91 | 1014.8 |
| 20260830120003 | 47 | 41 | 0.0 | 2.0 | 0.00 | 0.00 | 0.00 | 90 | 1014.3 |
| 20260830115403 | 47 | 161 | 0.0 | 1.0 | 0.00 | 0.00 | 0.00 | 91 | 1014.6 |
| 20260830114503 | 47 | 37 | 0.0 | 1.0 | 0.00 | 0.00 | 0.00 | 90 | 1014.6 |
| 20260830113603 | 47 | 25 | 0.0 | 1.0 | 0.00 | 0.00 | 0.00 | 90 | 1014.8 |
| 20260830112703 | 47 | 142 | 0.0 | 2.0 | 0.00 | 0.00 | 0.00 | 89 | 1014.9 |
| 20260830111803 | 47 | 149 | 0.0 | 2.0 | 0.00 | 0.00 | 0.00 | 88 | 1014.7 |
| 20260830110906 | 46 | 23 | 0.0 | 1.0 | 0.00 | 0.00 | 0.00 | 88 | 1014.7 |
| 20260830110004 | 46 | 22 | 0.0 | 2.0 | 0.00 | 0.00 | 0.00 | 88 | 1014.7 |
| 20260830105403 | 46 | 203 | 0.0 | 1.0 | 0.00 | 0.00 | 0.00 | 88 | 1014.4 |
| 20260830104718 | 46 | 140 | 0.0 | 3.0 | 0.00 | 0.00 | 0.00 | 88 | 1014.6 |
| 20260830103603 | 46 | 152 | 0.0 | 2.0 | 0.00 | 0.00 | 0.00 | 88 | 1014.4 |
| 20260830102917 | 46 | 79 | 0.0 | 2.0 | 0.00 | 0.00 | 0.00 | 88 | 1014.4 |
| 20260830101804 | 46 | 27 | 0.0 | 2.0 | 0.00 | 0.00 | 0.00 | 88 | 1014.4 |
| 20260830100903 | 46 | 24 | 0.0 | 1.0 | 0.00 | 0.00 | 0.00 | 87 | 1014.2 |
| 20260830100003 | 46 | 18 | 0.0 | 2.0 | 0.00 | 0.00 | 0.00 | 87 | 1014.3 |
| 20260830095403 | 46 | 22 | 0.0 | 2.0 | 0.00 | 0.00 | 0.00 | 87 | 1014.6 |
| 20260830094503 | 46 | 140 | 0.0 | 1.0 | 0.00 | 0.00 | 0.00 | 86 | 1014.3 |
| 20260830093817 | 46 | 48 | 0.0 | 2.0 | 0.00 | 0.00 | 0.00 | 87 | 1014.3 |
| 20260830092706 | 46 | 0 | 0.0 | 0.0 | 0.00 | 0.00 | 0.00 | 87 | 1014.4 |
| 20260830091803 | 46 | 203 | 0.0 | 1.0 | 0.00 | 0.00 | 0.00 | 87 | 1014.2 |
| 20260830090904 | 46 | 360 | 0.0 | 1.0 | 0.00 | 0.00 | 0.00 | 87 | 1014.3 |
| 20260830090004 | 46 | 23 | 0.0 | 1.0 | 0.00 | 0.00 | 0.00 | 86 | 1014.3 |
| 20260830085403 | 46 | 13 | 0.0 | 1.0 | 0.00 | 0.00 | 0.00 | 87 | 1014.2 |
| 20260830084503 | 46 | 262 | 0.0 | 1.0 | 0.00 | 0.00 | 0.00 | 86 | 1014.1 |
| 20260830083603 | 46 | 22 | 0.0 | 2.0 | 0.00 | 0.00 | 0.00 | 85 | 1014.4 |
| 20260830082704 | 47 | 41 | 0.0 | 2.0 | 0.00 | 0.00 | 0.00 | 85 | 1014.1 |
| 20260830082018 | 47 | 158 | 0.0 | 1.0 | 0.00 | 0.00 | 0.00 | 84 | 1014.1 |
| 20260830080903 | 47 | 0 | 0.0 | 0.0 | 0.00 | 0.00 | 0.00 | 84 | 1014.2 |
| 20260830080003 | 47 | 0 | 0.0 | 0.0 | 0.00 | 0.00 | 0.00 | 85 | 1014.1 |
| 20260830075403 | 47 | 0 | 0.0 | 0.0 | 0.00 | 0.00 | 0.00 | 84 | 1014.0 |
| 20260830074503 | 47 | 0 | 0.0 | 0.0 | 0.00 | 0.00 | 0.00 | 84 | 1014.0 |
| 20260830073817 | 47 | 133 | 0.0 | 2.0 | 0.00 | 0.00 | 0.00 | 84 | 1014.1 |
| 20260830072703 | 47 | 59 | 0.0 | 2.0 | 0.00 | 0.00 | 0.00 | 84 | 1014.1 |
| 20260830071804 | 47 | 21 | 0.0 | 2.0 | 0.00 | 0.00 | 0.00 | 83 | 1014.3 |
| 20260830070903 | 46 | 187 | 0.0 | 1.0 | 0.00 | 0.00 | 0.00 | 83 | 1014.1 |
| 20260830070003 | 46 | 138 | 0.0 | 1.0 | 0.00 | 0.00 | 0.00 | 84 | 1014.0 |
| 20260830065405 | 46 | 0 | 0.0 | 0.0 | 0.00 | 0.00 | 0.00 | 84 | 1014.2 |
| 20260830064505 | 45 | 0 | 0.0 | 0.0 | 0.00 | 0.00 | 0.00 | 84 | 1013.9 |
| 20260830063603 | 45 | 14 | 0.0 | 2.0 | 0.00 | 0.00 | 0.00 | 84 | 1014.3 |
| 20260830062703 | 45 | 16 | 0.0 | 2.0 | 0.00 | 0.00 | 0.00 | 82 | 1014.3 |
| 20260830061803 | 45 | 102 | 0.0 | 2.0 | 0.00 | 0.00 | 0.00 | 82 | 1014.3 |
| 20260830060903 | 45 | 72 | 0.0 | 2.0 | 0.00 | 0.00 | 0.00 | 82 | 1014.3 |
| 20260830060003 | 45 | 14 | 1.0 | 3.0 | 0.00 | 0.00 | 0.00 | 81 | 1014.1 |
| 20260830055403 | 46 | 8 | 1.0 | 2.0 | 0.00 | 0.00 | 0.00 | 81 | 1014.3 |
| 20260830054503 | 46 | 5 | 1.0 | 3.0 | 0.00 | 0.00 | 0.00 | 81 | 1014.4 |